Weather observations for the past three days for
Fort Payne, Isbell Field Airport
Imperial (Metric)
Date Time (cdt) Wind (mph) Vis. (mi.) Weather Sky Cond. Temperature (ºF) Relative Humidity Wind Chill (°F) Heat Index (°F) Pressure Precipitation (in)
Air Dwpt 6 hour altimeter (in) sea level (mb) 1 hr 3 hr 6 hr
Max. Min.
09 10:55 SW 8 10.00 Mostly Cloudy BKN016 65.5 58.1 77% 29.92 0.0
09 10:35 SW 7 10.00 Overcast OVC014 64.2 57.4 79% 29.92 0.0
09 10:15 S 7 10.00 Overcast SCT009 OVC014 63.3 57.4 81% 29.93 0.0
09 09:55 SW 7 10.00 Overcast SCT009 OVC014 61.3 57.9 89% 29.92 0.0
09 09:35 SW 5 10.00 Overcast SCT004 OVC014 60.1 57.9 93% 29.93 0.0
09 09:15 SW 6 4.00 Fog/Mist BKN006 BKN010 OVC014 59 59 100% 29.93 0.0
09 08:55 SW 6 2.00 Fog/Mist OVC004 58.1 57.6 98% 29.91 0.0
09 08:35 SW 5 1.25 Fog/Mist OVC004 57.2 57.2 100% 29.9 0.0
09 08:15 SW 3 2.00 Fog/Mist OVC004 57.2 56.5 97% 29.9 0.0
09 07:55 SW 3 2.50 Fog/Mist OVC006 57 55.6 95% 29.9 0.0
09 07:35 Calm 10.00 Overcast OVC008 57.2 55.2 93% 29.91 0.0
09 07:15 Calm 10.00 Overcast OVC010 56.5 54.7 94% 29.91 0.0
09 06:55 Calm 10.00 Overcast OVC010 55.4 54.3 55.6 49.3 96% 29.9 0.0
09 06:35 Calm 10.00 Overcast OVC010 55.4 54.1 96% 29.88 0.0
09 06:15 Calm 10.00 Overcast OVC012 54.9 53.4 95% 29.88 0.0
09 05:55 Calm 10.00 Overcast OVC012 54.1 53.1 96% 29.87 0.0
09 05:35 Calm 10.00 Overcast OVC012 53.8 53.1 97% 29.87 0.0
09 05:15 N 5 10.00 Overcast OVC012 53.8 52.9 97% 29.87 0.0
09 04:55 Calm 10.00 Overcast BKN016 BKN020 OVC031 54 52.5 95% 29.88 0.0
09 04:35 Calm 10.00 Overcast SCT021 OVC031 53.2 52.2 96% 29.88 0.0
09 04:15 Calm 10.00 Overcast OVC033 52.5 51.8 97% 29.89 0.0
09 03:55 Calm 10.00 Overcast SCT018 OVC033 52.7 51.8 97% 29.89 0.0
09 03:35 Calm 10.00 Overcast OVC018 51.8 51.1 97% 29.89 0.0
09 03:15 Calm 10.00 Overcast OVC020 51.8 50.9 97% 29.89 0.0
09 02:55 Calm 10.00 Overcast OVC020 50.7 50.2 98% 29.89 0.0
09 02:35 Calm 10.00 Overcast BKN020 OVC050 50.4 49.8 98% 29.88 0.0
09 02:15 Calm 10.00 Mostly Cloudy BKN050 49.8 49.5 99% 29.88 0.0
09 01:55 Calm 10.00 Mostly Cloudy BKN050 49.8 49.5 99% 29.88 0.0
09 01:15 Calm 10.00 Fair CLR 50.4 49.8 98% 29.9 0.0
09 00:55 Calm 10.00 Fair CLR 49.6 49.1 63.7 49.5 98% 29.91 0.0
09 00:35 Calm 10.00 Fair CLR 50.4 50 99% 29.91 0.0
09 00:15 Calm 10.00 Fair CLR 50.7 50.2 98% 29.92 0.0
08 23:55 Calm 10.00 Fair CLR 51.1 50.5 98% 29.92 0.0
08 23:35 Calm 10.00 Fair CLR 51.4 50.7 97% 29.92 0.0
08 23:15 Calm 10.00 Fair CLR 52.3 51.8 98% 29.92 0.0
08 22:55 Calm 10.00 Fair CLR 52 51.4 98% 29.92 0.0
08 22:35 Calm 10.00 Fair CLR 52.5 52 98% 29.92 0.0
08 22:15 Calm 10.00 Fair CLR 54 53.2 97% 29.94 0.0
08 21:55 N 3 10.00 Fair CLR 53.6 52.9 97% 29.94 0.0
08 21:35 NE 3 10.00 Fair CLR 53.6 53.6 100% 29.94 0.0
08 21:15 Calm 10.00 Fair CLR 55.6 53.8 94% 29.94 0.0
08 20:55 Calm 10.00 Fair CLR 55.9 54.1 94% 29.94 0.0
08 20:35 Calm 10.00 Fair CLR 57.4 55 92% 29.93 0.0
08 20:15 Calm 10.00 Fair CLR 58.6 54.9 87% 29.93 0.0
08 19:55 Calm 10.00 Fair CLR 59.7 55.6 86% 29.93 0.0
08 19:35 Calm 10.00 Fair CLR 61.2 55 80% 29.94 0.0
08 19:15 Calm 10.00 Fair CLR 63.1 51.8 67% 29.94 0.0
08 18:55 SW 3 10.00 Fair CLR 63.1 52.3 70.5 63 68% 29.94 0.0
08 18:35 Calm 10.00 Fair CLR 64.2 51.4 63% 29.93 0.0
08 18:15 Calm 10.00 Fair CLR 64.9 50 59% 29.93 0.0
08 17:55 S 5 10.00 Fair CLR 65.7 49.6 56% 29.93 0.0
08 17:35 S 3 10.00 Fair CLR 66 47.8 52% 29.94 0.0
08 17:15 S 6 10.00 Fair CLR 66.7 47.1 49% 29.94 0.0
08 16:55 S 5 10.00 Fair CLR 67.3 45.3 45% 29.94 0.0
08 16:35 S 7 10.00 Fair CLR 68.4 46.4 46% 29.94 0.0
08 16:15 S 8 10.00 Fair CLR 68.9 46.4 45% 29.94 0.0
08 15:55 S 6 10.00 Fair CLR 68.7 48 48% 29.94 0.0
08 15:35 SE 6 10.00 Fair CLR 69.1 46.4 44% 29.94 0.0
08 15:15 Calm 10.00 Fair CLR 69.6 45.5 42% 29.95 0.0
08 14:55 S 8 10.00 Fair CLR 69.8 45.5 42% 29.95 0.0
08 14:35 SE 6 10.00 Fair CLR 69.3 43.7 40% 29.95 0.0
08 14:15 S 5 10.00 Fair CLR 68.7 42.4 39% 29.96 0.0
08 13:55 SW 6 10.00 Fair CLR 69.6 45.7 42% 29.97 0.0
08 13:35 Calm 10.00 Fair CLR 68.5 44.6 42% 29.98 0.0
08 13:15 Calm 10.00 Fair CLR 68.4 43.2 40% 30 0.0
08 12:55 NW 3 10.00 Fair CLR 68.5 43.7 69.1 46 41% 30 0.0
08 12:35 SW 6 10.00 Fair CLR 67.3 41.4 39% 30.01 0.0
08 12:15 SW 3 10.00 Fair CLR 67.6 42.3 40% 30.02 0.0
08 11:55 E 3 10.00 Fair CLR 66.6 43.5 43% 30.03 0.0
08 11:35 SE 7 10.00 Fair CLR 65.8 41.7 42% 30.03 0.0
08 11:15 S 5 10.00 Fair CLR 65.7 42.3 43% 30.04 0.0
08 10:55 S 6 10.00 Fair CLR 64.8 41.2 42% 30.06 0.0
08 10:35 E 3 10.00 Fair CLR 64.8 39 39% 30.06 0.0
08 10:15 Calm 10.00 Fair CLR 64 40.5 42% 30.06 0.0
08 09:55 SE 6 10.00 Fair CLR 63.9 39.9 42% 30.07 0.0
08 09:35 E 5 10.00 Fair CLR 63 41.9 46% 30.07 0.0
08 08:55 N 3 10.00 Fair CLR 56.1 50 80% 30.07 0.0
08 08:35 NE 3 10.00 Fair CLR 54 49.1 84% 30.07 0.0
08 08:15 Calm 10.00 Fair CLR 52.5 50.4 92% 30.07 0.0
08 07:55 Calm 10.00 Fair CLR 50 0 0% 30.07 0.0
08 07:35 Calm 7.00 Fair CLR 48.2 0 0% 30.08 0.0
08 07:15 Calm 7.00 Fair CLR 46.4 0 0% 30.07 0.0
08 06:55 Calm 2.50 Fog/Mist CLR 46.4 0 49.5 45 0% 30.07 0.0
08 06:35 Calm 1.00 Fog/Mist BKN002 44.6 0 0% 30.06 0.0
08 05:55 Calm 0.15 Fog OVC002 44.6 0 0% 30.03 0.0
08 05:35 Calm 1.00 Fog/Mist OVC002 46.4 0 0% 30.03 0.0
08 05:15 Calm 4.00 Fair with Haze CLR 46.4 0 0% 30.02 0.0
08 04:55 Calm 3.00 Fog/Mist CLR 46.4 0 0% 30.01 0.0
08 04:35 Calm 2.50 Fog/Mist BKN002 46.4 0 0% 30.01 0.0
08 04:15 Calm 0.25 Fog OVC002 46.4 0 0% 30.01 0.0
08 03:55 Calm 0.25 Fog OVC002 46.4 0 0% 30 0.0
08 03:35 Calm 0.25 Fog OVC002 46.4 0 0% 30 0.0
08 03:15 Calm 0.25 Fog OVC002 48.2 0 0% 30 0.0
08 02:55 Calm 0.25 Fog OVC002 48.2 48.2 100% 30 0.0
08 02:35 Calm 0.25 Fog OVC002 48.2 48.2 100% 30 0.0
08 02:15 Calm 0.25 Fog OVC002 47.8 47.8 100% 30 0.0
08 01:55 Calm 0.25 Fog OVC002 48.4 48.4 100% 30.01 0.0
08 01:35 Calm 0.25 Fog OVC002 48.4 48.4 100% 30.01 0.0
08 01:15 Calm 0.75 Fog/Mist OVC002 48.7 48.7 100% 30.01 0.0
08 00:55 Calm 10.00 Partly Cloudy SCT002 49.8 49.8 62.8 49.3 100% 30.01 0.0
08 00:35 Calm 0.75 Fog/Mist OVC002 50 50 100% 30.01 0.0
08 00:15 Calm 0.50 Fog OVC002 50 49.8 99% 30.01 0.0
07 23:55 N 5 3.00 Fog/Mist CLR 49.6 49.5 99% 48 30.01 0.0
07 23:35 Calm 2.50 Fog/Mist CLR 50.7 50.5 99% 30.01 0.0
07 23:15 NE 3 10.00 Fair CLR 52 51.6 99% 30.01 0.0
07 22:55 Calm 10.00 Fair CLR 52.2 51.8 99% 30.01 0.0
07 22:35 Calm 10.00 Fair CLR 52.2 51.4 97% 30.01 0.0
07 22:15 Calm 10.00 Fair CLR 53.4 52.9 98% 30.01 0.0
07 21:55 Calm 10.00 Fair CLR 53.8 52.9 97% 30 0.0
07 21:35 Calm 10.00 Fair CLR 54 53.2 97% 30 0.0
07 21:15 Calm 10.00 Fair CLR 55.4 53.2 93% 30 0.0
07 20:55 Calm 10.00 Fair CLR 56.1 54.1 93% 29.99 0.0
07 20:15 Calm 10.00 Fair CLR 57.2 54.3 90% 29.97 0.0
07 19:55 Calm 10.00 Fair CLR 58.3 54.9 88% 29.97 0.0
07 19:35 Calm 10.00 Fair CLR 59.2 54.9 86% 29.97 0.0
07 19:15 Calm 10.00 Fair CLR 61.3 55 80% 29.96 0.0
07 18:55 Calm 10.00 Fair CLR 63.1 51.8 68.7 63 67% 29.96 0.0
07 18:35 NW 3 10.00 Fair CLR 63.9 51.8 65% 29.95 0.0
07 18:15 NW 6 10.00 Fair CLR 64.8 51.3 62% 29.95 0.0
07 17:55 W 6 10.00 Fair CLR 65.8 51.6 60% 29.95 0.0
07 17:35 NW 6 10.00 Partly Cloudy SCT042 65.7 52 61% 29.94 0.0
07 17:15 NW 7 10.00 Partly Cloudy SCT048 66.2 52.5 62% 29.94 0.0
07 16:55 NW 7 10.00 Partly Cloudy SCT048 66.7 52.9 61% 29.93 0.0
07 16:35 NW 12 10.00 Mostly Cloudy BKN048 66 51.3 59% 29.94 0.0
07 16:15 NW 8 10.00 Partly Cloudy SCT042 66.7 53.1 62% 29.93 0.0
07 15:55 NW 10 10.00 Overcast BKN042 OVC049 67.1 53.6 62% 29.93 0.0
07 15:35 NW 3 10.00 Mostly Cloudy SCT036 BKN043 BKN050 66 53.8 65% 29.93 0.0
07 15:15 N 7 10.00 Mostly Cloudy BKN037 BKN042 67.6 54.3 63% 29.92 0.0
07 14:55 N 6 10.00 Mostly Cloudy BKN034 BKN043 65.7 53.6 65% 29.92 0.0
07 14:35 N 8 10.00 Mostly Cloudy BKN028 BKN035 66 54.1 66% 29.92 0.0
07 14:15 NE 3 10.00 Mostly Cloudy BKN028 BKN035 65.3 54.7 69% 29.93 0.0
07 13:55 NW 7 10.00 Overcast BKN026 OVC035 66.4 56.3 70% 29.94 0.0
07 13:35 NW 8 10.00 Overcast BKN026 OVC035 64.2 54.3 70% 29.95 0.0
07 13:15 N 6 10.00 Overcast BKN024 OVC031 64 54.9 72% 29.95 0.0
07 12:55 W 3 10.00 Overcast OVC022 63.3 55.8 63.7 57.2 77% 29.94 0.0 0.02
07 12:35 NW 3 10.00 Overcast BKN018 OVC023 62.4 55.6 78% 29.96 0.0
07 12:15 N 7 10.00 Overcast OVC015 60.8 55 81% 29.96 0.0
07 11:55 N 8 10.00 Overcast OVC012 59.9 55.2 85% 29.96 0.0
07 11:35 N 8 10.00 Overcast OVC010 59.5 55.8 87% 29.95 0.0
07 11:15 N 6 10.00 Overcast OVC008 58.1 55.8 92% 29.96 0.0
07 10:55 NW 10 10.00 Overcast OVC008 57.6 55.6 93% 29.96 0.0
07 10:35 NW 6 10.00 Overcast OVC010 59 56.7 92% 29.95 0.0
07 10:15 NW 6 10.00 Overcast OVC010 59.4 56.8 91% 29.95 0.0
07 09:55 N 5 10.00 Overcast OVC010 59.2 57 93% 29.94 0.0 0.02
07 09:35 N 6 10.00 Overcast OVC008 59 56.8 93% 29.93 0.0
07 09:15 N 7 10.00 Overcast OVC008 58.8 56.8 93% 29.92 0.0
07 08:55 N 7 10.00 Overcast OVC008 58.3 56.3 93% 29.93 0.0 0.01
07 08:35 N 5 10.00 Overcast OVC008 58.3 56.8 95% 29.93 0.0 0.01
07 08:15 N 7 10.00 Light Rain OVC008 58.5 56.8 94% 29.92 0.0 0.01
07 07:55 NW 3 7.00 Light Rain Fog/Mist OVC010 58.6 57.4 96% 29.93 0.0 0.01
07 07:35 N 3 10.00 Light Rain OVC010 59.2 57.4 94% 29.9 0.0
07 07:15 N 3 10.00 Overcast OVC010 59.5 58.1 95% 29.9 0.0
07 06:55 Calm 10.00 Overcast OVC010 59.2 58.3 64.2 59.2 97% 29.88 0.0 0.14 0.57
07 06:35 Calm 5.00 Light Rain Fog/Mist BKN010 BKN035 OVC070 59.2 58.6 98% 29.88 0.0 0.13
07 06:15 Calm 1.50 Heavy Rain Fog/Mist BKN010 BKN023 OVC055 59.4 58.8 98% 29.88 0.0 0.08
07 05:55 Calm 7.00 Rain SCT010 BKN026 OVC050 59.4 58.8 98% 29.88 0.0 0.15
07 05:35 E 3 1.50 Heavy Rain Fog/Mist BKN008 BKN027 OVC034 59.7 58.8 97% 29.86 0.0 0.1
07 05:15 N 3 10.00 Overcast BKN008 BKN065 OVC075 59.7 58.6 96% 29.86 0.0
07 04:55 NE 6 10.00 Overcast OVC008 60.1 59.2 97% 29.85 0.0 0.24
07 04:35 NE 6 10.00 Light Rain BKN008 BKN018 OVC095 60.6 59.5 96% 29.86 0.0 0.24
07 04:15 N 7 3.00 Rain Fog/Mist SCT006 BKN013 OVC032 60.8 60.1 98% 29.88 0.0 0.24
07 03:55 N 5 10.00 Overcast BKN010 BKN014 OVC034 62.8 62.4 99% 29.86 0.0 0.03
07 03:35 NE 3 10.00 Overcast BKN012 BKN016 OVC034 62.8 62.6 99% 29.86 0.0
07 03:15 Calm 10.00 Light Rain OVC012 63.1 62.8 99% 29.86 0.0
07 02:55 Calm 10.00 Light Rain BKN014 OVC023 63 62.8 99% 29.85 0.0 0.02
07 02:35 Calm 7.00 Rain BKN014 OVC019 63.3 63 99% 29.86 0.0 0.01
07 02:15 Calm 10.00 Overcast BKN011 OVC017 63.3 63 99% 29.87 0.0
07 01:55 Calm 10.00 Overcast OVC011 63.7 63 98% 29.87 0.0 0.01
07 01:35 Calm 10.00 Overcast OVC009 63.5 63 98% 29.87 0.0 0.01
07 01:15 Calm 10.00 Light Rain BKN009 BKN028 OVC110 63.5 63 98% 29.87 0.0 0.01
07 00:55 Calm 10.00 Light Rain SCT009 BKN080 OVC100 63.9 62.8 64.6 63.7 96% 29.89 0.0 0.08 0.27
07 00:35 SE 5 10.00 Light Rain SCT049 BKN070 OVC090 63.9 63.1 98% 29.89 0.0 0.07
07 00:15 Calm 5.00 Thunderstorm Heavy Rain in Vicinity Fog/Mist SCT008 BKN070 OVC100 63.7 63.3 99% 29.9 0.0 0.04
06 23:55 SE 3 7.00 Light Rain SCT007 BKN070 OVC100 63.7 63.5 99% 29.88 0.0 0.08
06 23:35 W 5 10.00 Thunderstorm Light Rain in Vicinity SCT005 BKN050 OVC070 63.9 63.5 99% 29.93 0.0 0.04
06 23:15 Calm 10.00 Light Rain SCT005 BKN050 OVC070 63.9 63.5 99% 29.93 0.0
06 22:55 Calm 10.00 Light Rain SCT020 BKN070 OVC080 63.9 63.5 99% 29.9 0.0 0.1
06 22:35 Calm 10.00 Light Rain OVC049 64 63.7 99% 29.93 0.0
06 22:15 Calm 10.00 Overcast BKN049 OVC055 63.9 63.5 99% 29.91 0.0
06 21:55 Calm 10.00 Thunderstorm Light Rain SCT003 OVC045 63.9 63.5 99% 29.91 0.0 0.01
06 21:35 Calm 10.00 Overcast SCT003 OVC045 64 63.7 99% 29.91 0.0
06 21:15 Calm 10.00 Overcast OVC045 64.2 63.7 98% 29.92 0.0
06 20:35 Calm 10.00 Overcast OVC045 64.2 63.5 98% 29.91 0.0 0.01
06 20:15 Calm 10.00 Overcast SCT004 OVC043 64.2 63.7 98% 29.9 0.0 0.01
06 19:55 Calm 10.00 Overcast BKN035 OVC041 64.2 63.7 98% 29.91 0.0
06 19:35 Calm 10.00 Overcast OVC031 64.4 63.7 98% 29.9 0.0
06 19:15 NE 5 10.00 Overcast OVC029 64.6 63.7 97% 29.9 0.0
06 18:55 NE 5 10.00 Light Rain OVC025 64.4 63.7 76.3 64.4 98% 29.91 0.0 0.13 0.62
06 18:35 NE 3 4.00 Rain Fog/Mist SCT004 SCT021 OVC026 64.6 64 98% 29.91 0.0 0.13
06 18:15 Calm 3.00 Heavy Rain Fog/Mist OVC025 64.4 63.7 98% 29.9 0.0 0.07
06 17:55 Calm 3.50 Thunderstorm Rain in Vicinity Fog/Mist OVC025 64.6 63.7 97% 29.89 0.0 0.24
06 17:35 E 5 5.00 Rain Fog/Mist SCT017 OVC025 64.8 63.7 96% 29.91 0.0 0.2
06 17:15 W 5 1.50 Heavy Rain Fog/Mist SCT010 OVC022 64.9 64 97% 29.91 0.0 0.16
06 16:55 N 7 10.00 Thunderstorm Light Rain in Vicinity OVC020 65.5 64.4 96% 29.88 0.0 0.01
06 16:35 N 3 10.00 Overcast OVC022 65.5 64.2 96% 29.88 0.0 0.01
06 16:15 NE 3 10.00 Overcast OVC024 65.7 64 95% 29.88 0.0
06 15:55 SE 6 10.00 Light Rain OVC024 65.3 63.9 95% 29.88 0.0 0.22 0.24
06 15:35 E 3 4.00 Heavy Rain Fog/Mist OVC022 65.8 63.3 92% 29.9 0.0 0.15
06 15:15 E 5 2.00 Heavy Rain Fog/Mist SCT010 OVC022 65.7 63.3 92% 29.91 0.0 0.11
06 14:55 N 6 10.00 Light Rain BKN022 OVC030 66.9 63.7 89% 29.91 0.0 0.02
06 14:35 NW 17 G 24 10.00 Overcast SCT022 BKN036 OVC047 74.1 66.7 78% 29.92 0.0
06 14:15 SW 12 10.00 Overcast SCT028 BKN035 OVC047 75.7 67.5 76% 77 29.91 0.0
06 13:55 SW 10 10.00 Overcast BKN025 OVC032 75.6 66.9 75% 77 29.91 0.0
06 13:35 S 10 G 16 10.00 Overcast SCT027 BKN034 OVC060 75.9 66.6 73% 77 29.91 0.0
06 13:15 S 3 10.00 Overcast SCT023 BKN027 OVC055 73.2 67.5 82% 29.92 0.0
06 12:55 SW 3 10.00 Overcast OVC023 71.6 66.9 71.8 65.1 85% 29.93 0.0 0.05
06 12:35 S 3 10.00 Overcast OVC023 71.2 67.5 88% 29.94 0.0
06 12:15 Calm 10.00 Overcast OVC021 71.1 66.7 86% 29.94 0.0
06 11:55 W 3 10.00 Overcast OVC019 71.2 66.2 84% 29.94 0.0
06 11:35 SW 3 10.00 Overcast SCT011 OVC017 70.9 66.2 85% 29.93 0.0
Date Time (cdt) Wind (mph) Vis. (mi.) Weather Sky Cond. Air Dwpt Max. Min. Relative Humidity Wind Chill (°F) Heat Index (°F) altimeter (in) sea level (mb) 1 hr 3 hr 6 hr
6 hour
Temperature (ºF) Pressure Precipitation (in)